Regional Weather Roundup
Issued by NWS

Home | Current Version | Previous Version | Graphics & Text | Print | Product List | Glossary On
Versions: 1 2 3 4 5 6 7 8 9 10 11 12 13 14 15 16 17 18 19 20 21 22 23 24 25 26 27 28 29 30 31 32 33 34 35 36 37 38 39 40 41 42 43 44 45 46 47 48 49 50
000
ASUS45 KSLC 251710
RWRUT

UTAH REGIONAL WEATHER ROUNDUP
NATIONAL WEATHER SERVICE SALT LAKE CITY UT
1100 AM MDT MON MAY 25 2015

UTZ001>011-023>025-251800-

NORTHERN UTAH

CITY           SKY/WX    TMP DP  RH WIND       PRES   REMARKS
BRIGHAM CITY   PTSUNNY   60  48  63 SW8       29.98R
HILL AFB       CLOUDY    59  46  63 VRB3      29.99R
LOGAN          SUNNY     61  48  62 VRB5      29.96S
OGDEN          CLOUDY    60  46  59 CALM      29.98R
PROVO AIRPORT  PTSUNNY   59  45  58 S5        30.00S
SALT LAKE CITY MOSUNNY   61  48  62 S7        29.97S
VERNAL         CLOUDY    52  44  74 CALM      30.02R
WENDOVER       SUNNY     63  46  55 NE3       29.98R
HEBER CITY     LGT RAIN  52  45  76 CALM      30.01S
WEST JORDAN    MOSUNNY   61  48  63 SE3       29.99S

$$

UTZ012>022-026-027-251800-

SOUTHERN/CENTRAL UTAH

CITY           SKY/WX    TMP DP  RH WIND       PRES   REMARKS
BLANDING       CLOUDY    58  47  66 CALM      30.09S
BRYCE CANYON   MOSUNNY   55  37  50 W10       30.08S
CEDAR CITY     SUNNY     60  42  51 SW6       30.03R
DELTA          MOSUNNY   60  45  56 S8        30.01R
HANKSVILLE     MOSUNNY   64  43  45 NW3       29.98S
MILFORD        SUNNY     61  46  57 SW13      30.01S
MOAB/CYNLANDS  SUNNY     61  44  53 CALM      29.95S
PRICE          CLOUDY    53  42  66 SW5       30.00S
ST GEORGE      MOSUNNY   66  46  48 CALM      29.99F

$$

REGIONAL REPORTS     COLORADO/ARIZONA

CITY           SKY/WX    TMP DP  RH WIND       PRES   REMARKS
CRAIG, CO      CLOUDY    50  40  68 SW8       30.02S
GRAND JUNCTION CLOUDY    56  45  66 CALM      29.99F
RIFLE          CLOUDY    51  42  71 E3        30.03S
MONTROSE       MOSUNNY   55  43  63 CALM      30.03F
CORTEZ         CLOUDY    51  47  86 S12       30.04R
PAGE, AZ       MOSUNNY   64  47  53 N7        29.99S
GRAND CANYON   PTSUNNY   52  45  77 W9        30.11S
KINGMAN        SUNNY     71  40  32 SW13      29.99S
FLAGSTAFF      PTSUNNY   55  41  59 W13       30.11S

$$

REGIONAL REPORTS    NEVADA/IDAHO/WYOMING

CITY           SKY/WX    TMP DP  RH WIND       PRES   REMARKS
LAS VEGAS, NV  MOSUNNY   72  51  47 CALM      29.92S
ELY            SUNNY     60  37  42 VRB5      30.06S
ELKO           MOSUNNY   59  47  64 VRB3      30.01S
POCATELLO, ID  MOSUNNY   60  48  64 W12       29.97S
BURLEY         MOSUNNY   64  46  52 SW6       29.93F
EVANSTON, WY   CLOUDY    49  43  80 VRB6      30.03S
ROCK SPRINGS   CLOUDY    48  40  73 W6        30.02S
KEMMERER       LGT RAIN  46  41  81 W9        30.03S

$$


USA.gov is the U.S. government's official web portal to all federal, state and local government web resources and services.